| time (UTC) | temp F | wind direction | speed MPH | gust MPH | rain 1hr in | rain 24hr in | rain mn in | humidity % | barometer mb |
| 20260508184531 | 73 | 352 | 2.0 | 5.0 | 0.00 | 0.01 | 0.01 | 31 | 1015.5 |
| 20260508183022 | 72 | 321 | 1.0 | 5.0 | 0.00 | 0.01 | 0.01 | 28 | 1015.8 |
| 20260508181519 | 73 | 124 | 0.0 | 4.0 | 0.00 | 0.01 | 0.01 | 31 | 1015.9 |
| 20260508180017 | 72 | 304 | 2.0 | 7.0 | 0.00 | 0.01 | 0.01 | 30 | 1015.8 |
| 20260508174518 | 72 | 10 | 0.0 | 3.0 | 0.00 | 0.02 | 0.01 | 33 | 1015.9 |
| 20260508173011 | 71 | 105 | 1.0 | 3.0 | 0.00 | 0.02 | 0.01 | 31 | 1016.4 |
| 20260508171508 | 70 | 83 | 1.0 | 6.0 | 0.00 | 0.02 | 0.01 | 35 | 1016.5 |
| 20260508170007 | 70 | 158 | 1.0 | 3.0 | 0.00 | 0.02 | 0.01 | 35 | 1017.0 |
| 20260508164511 | 71 | 169 | 2.0 | 8.0 | 0.00 | 0.02 | 0.01 | 30 | 1017.2 |
| 20260508163100 | 70 | 91 | 1.0 | 6.0 | 0.00 | 0.02 | 0.01 | 33 | 1017.3 |
| 20260508161559 | 70 | 34 | 0.0 | 4.0 | 0.00 | 0.02 | 0.01 | 34 | 1017.3 |
| 20260508160057 | 70 | 128 | 1.0 | 4.0 | 0.00 | 0.02 | 0.01 | 35 | 1017.5 |
| 20260508154551 | 69 | 229 | 0.0 | 4.0 | 0.00 | 0.02 | 0.01 | 34 | 1017.6 |
| 20260508153049 | 69 | 168 | 1.0 | 3.0 | 0.00 | 0.02 | 0.01 | 36 | 1017.8 |
| 20260508151546 | 68 | 97 | 1.0 | 4.0 | 0.00 | 0.02 | 0.01 | 42 | 1017.6 |
| 20260508150044 | 68 | 250 | 0.0 | 6.0 | 0.00 | 0.02 | 0.01 | 41 | 1017.6 |
| 20260508144539 | 67 | 345 | 0.0 | 2.0 | 0.00 | 0.06 | 0.01 | 42 | 1017.8 |
| 20260508143035 | 66 | 144 | 0.0 | 2.0 | 0.00 | 0.06 | 0.01 | 40 | 1018.0 |
| 20260508141531 | 65 | 159 | 0.0 | 4.0 | 0.00 | 0.06 | 0.01 | 44 | 1018.1 |
| 20260508140027 | 64 | 110 | 0.0 | 3.0 | 0.00 | 0.06 | 0.01 | 46 | 1018.2 |
| 20260508134522 | 63 | 276 | 0.0 | 3.0 | 0.00 | 0.22 | 0.01 | 52 | 1017.9 |
| 20260508133024 | 62 | 198 | 0.0 | 2.0 | 0.00 | 0.22 | 0.01 | 56 | 1017.8 |
| 20260508131516 | 60 | 316 | 0.0 | 6.0 | 0.00 | 0.22 | 0.01 | 60 | 1017.8 |
| 20260508130006 | 59 | 7 | 0.0 | 5.0 | 0.00 | 0.22 | 0.01 | 64 | 1017.7 |
| 20260508124502 | 55 | 67 | 1.0 | 5.0 | 0.00 | 0.56 | 0.01 | 73 | 1017.6 |
| 20260508123109 | 54 | 48 | 0.0 | 2.0 | 0.00 | 0.56 | 0.01 | 74 | 1017.5 |
| 20260508121606 | 53 | 344 | 0.0 | 0.0 | 0.01 | 0.56 | 0.01 | 74 | 1017.3 |
| 20260508120057 | 53 | 343 | 0.0 | 1.0 | 0.01 | 0.56 | 0.01 | 75 | 1017.1 |
| 20260508114551 | 51 | 347 | 0.0 | 1.0 | 0.01 | 0.56 | 0.01 | 75 | 1016.8 |
| 20260508113046 | 51 | 347 | 0.0 | 0.0 | 0.01 | 0.56 | 0.01 | 74 | 1016.5 |
| 20260508111544 | 50 | 347 | 0.0 | 0.0 | 0.00 | 0.55 | 0.00 | 74 | 1016.3 |
| 20260508110041 | 49 | 347 | 0.0 | 0.0 | 0.00 | 0.55 | 0.00 | 74 | 1016.0 |
| 20260508104602 | 49 | 347 | 0.0 | 0.0 | 0.00 | 0.59 | 0.00 | 74 | 1015.7 |
| 20260508103041 | 50 | 347 | 0.0 | 1.0 | 0.00 | 0.59 | 0.00 | 74 | 1015.2 |
| 20260508101529 | 50 | 347 | 0.0 | 1.0 | 0.00 | 0.59 | 0.00 | 74 | 1014.9 |
| 20260508100027 | 50 | 347 | 0.0 | 1.0 | 0.00 | 0.59 | 0.00 | 74 | 1015.0 |
| 20260508094524 | 50 | 2 | 0.0 | 1.0 | 0.00 | 0.67 | 0.00 | 73 | 1014.9 |
| 20260508093022 | 50 | 2 | 0.0 | 1.0 | 0.00 | 0.67 | 0.00 | 74 | 1014.7 |
| 20260508091518 | 50 | 323 | 0.0 | 0.0 | 0.00 | 0.67 | 0.00 | 74 | 1014.7 |
| 20260508090018 | 50 | 323 | 0.0 | 0.0 | 0.00 | 0.67 | 0.00 | 73 | 1014.7 |
| 20260508084510 | 50 | 323 | 0.0 | 0.0 | 0.00 | 0.97 | 0.00 | 73 | 1014.7 |
| 20260508083008 | 51 | 323 | 0.0 | 0.0 | 0.00 | 0.97 | 0.00 | 73 | 1014.6 |
| 20260508081504 | 51 | 323 | 0.0 | 0.0 | 0.00 | 0.97 | 0.00 | 73 | 1014.5 |
| 20260508080001 | 51 | 323 | 0.0 | 0.0 | 0.00 | 0.97 | 0.00 | 73 | 1014.3 |
| 20260508074558 | 51 | 323 | 0.0 | 0.0 | 0.00 | 1.13 | 0.00 | 73 | 1014.1 |
| 20260508073055 | 51 | 323 | 0.0 | 0.0 | 0.00 | 1.13 | 0.00 | 73 | 1014.1 |
| 20260508071559 | 52 | 323 | 0.0 | 0.0 | 0.00 | 1.13 | 0.00 | 73 | 1013.7 |
| 20260508070135 | 52 | 323 | 0.0 | 0.0 | 0.00 | 1.13 | 0.00 | 72 | 1013.9 |
| 20260508064547 | 53 | 323 | 0.0 | 0.0 | 0.00 | 1.29 | 0.00 | 72 | 1013.9 |
| 20260508063040 | 53 | 323 | 0.0 | 0.0 | 0.00 | 1.29 | 0.00 | 72 | 1014.0 |
| 20260508061537 | 54 | 323 | 0.0 | 0.0 | 0.00 | 1.29 | 0.00 | 71 | 1014.0 |
| 20260508060034 | 55 | 323 | 0.0 | 0.0 | 0.00 | 1.29 | 0.00 | 71 | 1014.4 |
| 20260508054528 | 56 | 323 | 0.0 | 0.0 | 0.00 | 1.29 | 0.00 | 71 | 1014.2 |
| 20260508053024 | 56 | 323 | 0.0 | 0.0 | 0.00 | 1.29 | 0.00 | 70 | 1014.3 |
| 20260508051521 | 56 | 323 | 0.0 | 0.0 | 0.00 | 1.29 | 0.00 | 69 | 1014.2 |
| 20260508050020 | 56 | 323 | 0.0 | 0.0 | 0.00 | 1.29 | 0.00 | 68 | 1014.0 |
| 20260508044513 | 57 | 323 | 0.0 | 0.0 | 0.00 | 1.29 | 0.00 | 68 | 1013.8 |
| 20260508043008 | 57 | 323 | 0.0 | 0.0 | 0.00 | 1.29 | 0.00 | 68 | 1013.7 |
| 20260508041506 | 58 | 323 | 0.0 | 1.0 | 0.00 | 1.29 | 0.00 | 67 | 1013.6 |
| 20260508040058 | 58 | 360 | 0.0 | 2.0 | 0.00 | 1.29 | 0.00 | 67 | 1013.3 |
| 20260508034556 | 58 | 248 | 0.0 | 2.0 | 0.00 | 1.33 | 1.29 | 68 | 1013.5 |
| 20260508033052 | 58 | 233 | 0.0 | 1.0 | 0.00 | 1.33 | 1.29 | 68 | 1013.3 |
| 20260508031553 | 58 | 233 | 0.0 | 1.0 | 0.00 | 1.33 | 1.29 | 67 | 1013.4 |
| 20260508030055 | 59 | 352 | 0.0 | 4.0 | 0.00 | 1.33 | 1.29 | 67 | 1013.3 |
| 20260508024544 | 59 | 332 | 0.0 | 2.0 | 0.00 | 1.52 | 1.29 | 67 | 1013.1 |
| 20260508023043 | 59 | 26 | 0.0 | 4.0 | 0.00 | 1.52 | 1.29 | 67 | 1013.0 |
| 20260508021538 | 59 | 304 | 0.0 | 6.0 | 0.00 | 1.52 | 1.29 | 66 | 1012.6 |
| 20260508020033 | 60 | 61 | 0.0 | 5.0 | 0.00 | 1.52 | 1.29 | 66 | 1012.5 |
| 20260508014530 | 61 | 320 | 0.0 | 3.0 | 0.00 | 1.52 | 1.29 | 67 | 1012.5 |
| 20260508013027 | 61 | 26 | 0.0 | 4.0 | 0.00 | 1.52 | 1.29 | 67 | 1012.0 |
| 20260508011524 | 61 | 238 | 0.0 | 9.0 | 0.00 | 1.52 | 1.29 | 67 | 1011.4 |
| 20260508010024 | 62 | 44 | 2.0 | 10.0 | 0.00 | 1.52 | 1.29 | 66 | 1011.1 |
| 20260508004514 | 63 | 290 | 3.0 | 14.0 | 0.00 | 1.52 | 1.29 | 64 | 1011.0 |
| 20260508003009 | 64 | 340 | 2.0 | 6.0 | 0.00 | 1.52 | 1.29 | 64 | 1010.4 |
| 20260508001506 | 66 | 346 | 5.0 | 15.0 | 0.00 | 1.52 | 1.29 | 62 | 1009.9 |
| 20260508000006 | 73 | 46 | 2.0 | 7.0 | 0.00 | 1.52 | 1.29 | 60 | 1009.0 |
| 20260507234601 | 74 | 354 | 0.0 | 3.0 | 0.00 | 1.52 | 1.29 | 59 | 1008.1 |
| 20260507233059 | 75 | 287 | 0.0 | 3.0 | 0.00 | 1.52 | 1.29 | 58 | 1007.9 |
| 20260507231557 | 76 | 359 | 0.0 | 5.0 | 0.00 | 1.52 | 1.29 | 56 | 1007.8 |
| 20260507230100 | 77 | 179 | 1.0 | 5.0 | 0.00 | 1.52 | 1.29 | 55 | 1007.6 |
| 20260507224553 | 78 | 267 | 2.0 | 5.0 | 0.00 | 1.52 | 1.29 | 53 | 1007.3 |
| 20260507223051 | 78 | 133 | 0.0 | 3.0 | 0.00 | 1.52 | 1.29 | 56 | 1007.0 |
| 20260507221549 | 77 | 274 | 0.0 | 6.0 | 0.00 | 1.52 | 1.29 | 57 | 1007.2 |
| 20260507220047 | 78 | 233 | 1.0 | 4.0 | 0.00 | 1.52 | 1.29 | 55 | 1007.1 |
| 20260507214544 | 78 | 120 | 0.0 | 4.0 | 0.00 | 1.52 | 1.29 | 54 | 1007.2 |
| 20260507213045 | 79 | 129 | 2.0 | 5.0 | 0.00 | 1.52 | 1.29 | 52 | 1006.9 |
| 20260507211540 | 78 | 140 | 1.0 | 6.0 | 0.00 | 1.52 | 1.29 | 53 | 1007.0 |
| 20260507210037 | 78 | 27 | 2.0 | 5.0 | 0.00 | 1.52 | 1.29 | 53 | 1007.0 |
| 20260507204534 | 78 | 103 | 1.0 | 5.0 | 0.00 | 1.52 | 1.29 | 53 | 1007.3 |
| 20260507203029 | 77 | 356 | 2.0 | 6.0 | 0.00 | 1.52 | 1.29 | 55 | 1007.6 |
| 20260507201535 | 77 | 257 | 1.0 | 7.0 | 0.00 | 1.52 | 1.29 | 55 | 1007.6 |
| 20260507200023 | 76 | 139 | 1.0 | 6.0 | 0.00 | 1.52 | 1.29 | 56 | 1007.8 |
| 20260507194522 | 74 | 314 | 1.0 | 5.0 | 0.00 | 1.52 | 1.29 | 60 | 1008.1 |
| 20260507193012 | 74 | 303 | 0.0 | 4.0 | 0.00 | 1.52 | 1.29 | 60 | 1008.4 |
| 20260507191506 | 73 | 248 | 1.0 | 6.0 | 0.00 | 1.52 | 1.29 | 60 | 1008.4 |
| 20260507190100 | 73 | 338 | 2.0 | 6.0 | 0.00 | 1.52 | 1.29 | 62 | 1008.5 |